| time (UTC) | temp F | wind direction | speed knots | gust knots | rain 1hr in | rain 24hr in | rain mn in | humidity % | barometer mb |
| 20260507032522 | 67 | 56 | 0.0 | 3.5 | 0.00 | 0.00 | 0.00 | 70 | 1012.5 |
| 20260507032022 | 67 | 46 | 0.0 | 4.3 | 0.00 | 0.00 | 0.00 | 70 | 1012.4 |
| 20260507031521 | 67 | 53 | 0.0 | 4.3 | 0.00 | 0.00 | 0.00 | 70 | 1012.4 |
| 20260507031021 | 67 | 58 | 0.0 | 2.6 | 0.00 | 0.00 | 0.00 | 70 | 1012.2 |
| 20260507030521 | 67 | 74 | 0.0 | 2.6 | 0.00 | 0.00 | 0.00 | 70 | 1012.1 |
| 20260507030023 | 68 | 59 | 0.0 | 3.5 | 0.00 | 0.00 | 0.00 | 70 | 1012.1 |
| 20260507025522 | 68 | 22 | 0.0 | 4.3 | 0.00 | 0.00 | 0.00 | 70 | 1012.1 |
| 20260507025019 | 68 | 63 | 0.0 | 1.7 | 0.00 | 0.00 | 0.00 | 70 | 1012.0 |
| 20260507024519 | 68 | 77 | 0.0 | 1.7 | 0.00 | 0.00 | 0.00 | 70 | 1012.2 |
| 20260507024018 | 68 | 74 | 0.0 | 2.6 | 0.00 | 0.00 | 0.00 | 70 | 1012.2 |
| 20260507023517 | 68 | 69 | 0.0 | 5.2 | 0.00 | 0.00 | 0.00 | 69 | 1012.1 |
| 20260507023016 | 68 | 49 | 0.9 | 5.2 | 0.00 | 0.00 | 0.00 | 69 | 1012.1 |
| 20260507022516 | 68 | 52 | 0.0 | 3.5 | 0.00 | 0.00 | 0.00 | 69 | 1012.1 |
| 20260507022015 | 69 | 63 | 0.0 | 5.2 | 0.00 | 0.00 | 0.00 | 69 | 1012.0 |
| 20260507021514 | 69 | 72 | 0.0 | 5.2 | 0.00 | 0.00 | 0.00 | 69 | 1011.8 |
| 20260507021017 | 69 | 53 | 0.0 | 2.6 | 0.00 | 0.00 | 0.00 | 70 | 1011.7 |
| 20260507020514 | 69 | 84 | 0.0 | 2.6 | 0.00 | 0.00 | 0.00 | 70 | 1011.8 |
| 20260507020012 | 69 | 63 | 0.0 | 3.5 | 0.00 | 0.00 | 0.00 | 69 | 1011.8 |
| 20260507015512 | 69 | 54 | 0.0 | 3.5 | 0.00 | 0.00 | 0.00 | 69 | 1011.7 |
| 20260507015011 | 69 | 74 | 0.0 | 2.6 | 0.00 | 0.00 | 0.00 | 69 | 1011.7 |
| 20260507014509 | 69 | 77 | 0.0 | 4.3 | 0.00 | 0.00 | 0.00 | 69 | 1011.7 |
| 20260507014009 | 70 | 67 | 0.9 | 4.3 | 0.00 | 0.00 | 0.00 | 69 | 1011.5 |
| 20260507013507 | 70 | 75 | 0.0 | 3.5 | 0.00 | 0.00 | 0.00 | 68 | 1011.5 |
| 20260507013011 | 70 | 63 | 0.0 | 3.5 | 0.00 | 0.00 | 0.00 | 68 | 1011.3 |
| 20260507012506 | 71 | 72 | 0.0 | 4.3 | 0.00 | 0.00 | 0.00 | 68 | 1011.4 |
| 20260507012005 | 71 | 75 | 0.9 | 4.3 | 0.00 | 0.00 | 0.00 | 67 | 1011.2 |
| 20260507011505 | 72 | 53 | 0.0 | 3.5 | 0.00 | 0.00 | 0.00 | 68 | 1011.0 |
| 20260507011004 | 72 | 68 | 0.9 | 4.3 | 0.00 | 0.00 | 0.00 | 68 | 1010.6 |
| 20260507010600 | 72 | 49 | 0.9 | 4.3 | 0.00 | 0.00 | 0.00 | 67 | 1010.7 |
| 20260507010100 | 73 | 25 | 0.9 | 4.3 | 0.00 | 0.00 | 0.00 | 67 | 1010.5 |
| 20260507005603 | 73 | 54 | 0.0 | 6.1 | 0.00 | 0.00 | 0.00 | 67 | 1010.5 |
| 20260507005057 | 74 | 63 | 0.9 | 6.1 | 0.00 | 0.00 | 0.00 | 66 | 1010.5 |
| 20260507004557 | 74 | 69 | 0.9 | 6.1 | 0.00 | 0.00 | 0.00 | 66 | 1010.5 |
| 20260507004055 | 75 | 72 | 1.7 | 8.7 | 0.00 | 0.00 | 0.00 | 66 | 1010.4 |
| 20260507003554 | 75 | 46 | 2.6 | 8.7 | 0.00 | 0.00 | 0.00 | 65 | 1010.5 |
| 20260507003057 | 76 | 68 | 1.7 | 6.1 | 0.00 | 0.00 | 0.00 | 65 | 1010.6 |
| 20260507002554 | 76 | 88 | 0.0 | 7.0 | 0.00 | 0.00 | 0.00 | 66 | 1010.5 |
| 20260507002055 | 77 | 69 | 1.7 | 6.1 | 0.00 | 0.00 | 0.00 | 65 | 1010.3 |
| 20260507001611 | 77 | 58 | 0.9 | 7.0 | 0.00 | 0.00 | 0.00 | 65 | 1010.2 |
| 20260507001053 | 78 | 49 | 0.9 | 6.1 | 0.00 | 0.00 | 0.00 | 65 | 1010.2 |
| 20260507000554 | 78 | 63 | 1.7 | 6.1 | 0.00 | 0.00 | 0.00 | 65 | 1010.1 |
| 20260507000053 | 78 | 64 | 0.9 | 6.1 | 0.00 | 0.00 | 0.00 | 66 | 1009.9 |
| 20260506235554 | 79 | 58 | 0.9 | 6.1 | 0.00 | 0.00 | 0.00 | 65 | 1009.8 |
| 20260506235054 | 79 | 50 | 1.7 | 9.6 | 0.00 | 0.00 | 0.00 | 65 | 1009.6 |
| 20260506234601 | 80 | 66 | 3.5 | 9.6 | 0.00 | 0.00 | 0.00 | 63 | 1009.6 |
| 20260506234054 | 81 | 51 | 2.6 | 8.7 | 0.00 | 0.00 | 0.00 | 63 | 1009.6 |
| 20260506233555 | 82 | 70 | 2.6 | 8.7 | 0.00 | 0.00 | 0.00 | 64 | 1009.3 |
| 20260506233056 | 83 | 53 | 1.7 | 7.0 | 0.00 | 0.00 | 0.00 | 64 | 1009.2 |
| 20260506232551 | 83 | 55 | 1.7 | 7.0 | 0.00 | 0.00 | 0.00 | 64 | 1009.1 |
| 20260506232051 | 83 | 54 | 1.7 | 6.1 | 0.00 | 0.00 | 0.00 | 64 | 1009.1 |
| 20260506231554 | 84 | 57 | 0.0 | 3.5 | 0.00 | 0.00 | 0.00 | 64 | 1009.1 |
| 20260506231052 | 84 | 40 | 0.0 | 4.3 | 0.00 | 0.00 | 0.00 | 63 | 1008.9 |
| 20260506230551 | 84 | 58 | 0.9 | 4.3 | 0.00 | 0.00 | 0.00 | 62 | 1008.8 |
| 20260506230051 | 85 | 57 | 0.0 | 4.3 | 0.00 | 0.00 | 0.00 | 62 | 1008.7 |
| 20260506225555 | 85 | 45 | 0.0 | 3.5 | 0.00 | 0.00 | 0.00 | 62 | 1008.9 |
| 20260506225051 | 85 | 70 | 0.0 | 3.5 | 0.00 | 0.00 | 0.00 | 61 | 1008.7 |
| 20260506224605 | 86 | 37 | 0.0 | 4.3 | 0.00 | 0.00 | 0.00 | 61 | 1008.7 |
| 20260506224052 | 87 | 50 | 1.7 | 5.2 | 0.00 | 0.00 | 0.00 | 59 | 1008.9 |
| 20260506223550 | 87 | 57 | 0.9 | 5.2 | 0.00 | 0.00 | 0.00 | 58 | 1008.9 |
| 20260506223054 | 87 | 43 | 0.9 | 5.2 | 0.00 | 0.00 | 0.00 | 58 | 1008.8 |
| 20260506222548 | 87 | 51 | 1.7 | 5.2 | 0.00 | 0.00 | 0.00 | 59 | 1008.8 |
| 20260506222049 | 87 | 42 | 0.9 | 5.2 | 0.00 | 0.00 | 0.00 | 59 | 1008.8 |
| 20260506221548 | 86 | 331 | 0.9 | 3.5 | 0.00 | 0.00 | 0.00 | 61 | 1008.8 |
| 20260506221048 | 85 | 51 | 0.9 | 4.3 | 0.00 | 0.00 | 0.00 | 61 | 1008.8 |
| 20260506220548 | 85 | 108 | 0.9 | 5.2 | 0.00 | 0.00 | 0.00 | 62 | 1008.8 |
| 20260506215549 | 85 | 105 | 0.9 | 4.3 | 0.00 | 0.00 | 0.00 | 62 | 1008.8 |
| 20260506215048 | 85 | 89 | 0.9 | 6.1 | 0.00 | 0.00 | 0.00 | 62 | 1008.8 |
| 20260506214550 | 86 | 102 | 1.7 | 8.7 | 0.00 | 0.00 | 0.00 | 61 | 1008.8 |
| 20260506214048 | 87 | 36 | 1.7 | 8.7 | 0.00 | 0.00 | 0.00 | 62 | 1008.8 |
| 20260506213548 | 87 | 39 | 1.7 | 6.1 | 0.00 | 0.00 | 0.00 | 62 | 1008.8 |
| 20260506213046 | 86 | 58 | 0.9 | 4.3 | 0.00 | 0.00 | 0.00 | 61 | 1008.7 |
| 20260506212545 | 86 | 41 | 2.6 | 4.3 | 0.00 | 0.00 | 0.00 | 62 | 1008.9 |
| 20260506212044 | 85 | 83 | 0.9 | 5.2 | 0.00 | 0.00 | 0.00 | 61 | 1008.9 |
| 20260506211552 | 86 | 69 | 1.7 | 5.2 | 0.00 | 0.00 | 0.00 | 61 | 1009.0 |
| 20260506211044 | 86 | 94 | 0.9 | 4.3 | 0.00 | 0.00 | 0.00 | 62 | 1009.0 |
| 20260506210544 | 86 | 86 | 1.7 | 6.1 | 0.00 | 0.00 | 0.00 | 62 | 1009.0 |
| 20260506210043 | 86 | 34 | 0.9 | 6.1 | 0.00 | 0.00 | 0.00 | 61 | 1009.1 |
| 20260506205541 | 86 | 80 | 0.0 | 6.1 | 0.00 | 0.00 | 0.00 | 62 | 1009.2 |
| 20260506205040 | 85 | 53 | 0.0 | 6.1 | 0.00 | 0.00 | 0.00 | 62 | 1009.2 |
| 20260506204542 | 84 | 65 | 0.9 | 5.2 | 0.00 | 0.00 | 0.00 | 62 | 1009.3 |
| 20260506204040 | 84 | 335 | 1.7 | 5.2 | 0.00 | 0.00 | 0.00 | 62 | 1009.4 |
| 20260506203540 | 85 | 89 | 0.0 | 5.2 | 0.00 | 0.00 | 0.00 | 62 | 1009.4 |
| 20260506203039 | 84 | 82 | 0.9 | 5.2 | 0.00 | 0.00 | 0.00 | 62 | 1009.6 |
| 20260506202541 | 84 | 87 | 2.6 | 7.0 | 0.00 | 0.00 | 0.00 | 62 | 1009.6 |
| 20260506202036 | 84 | 32 | 1.7 | 7.0 | 0.00 | 0.00 | 0.00 | 63 | 1009.7 |
| 20260506201537 | 84 | 356 | 1.7 | 6.1 | 0.00 | 0.00 | 0.00 | 62 | 1009.8 |
| 20260506201036 | 83 | 56 | 0.9 | 6.1 | 0.00 | 0.00 | 0.00 | 62 | 1009.9 |
| 20260506200535 | 83 | 36 | 1.7 | 5.2 | 0.00 | 0.00 | 0.00 | 63 | 1010.0 |
| 20260506200035 | 83 | 56 | 0.9 | 3.5 | 0.00 | 0.00 | 0.00 | 62 | 1010.1 |
| 20260506195532 | 82 | 38 | 0.9 | 4.3 | 0.00 | 0.00 | 0.00 | 62 | 1010.1 |
| 20260506195031 | 82 | 52 | 0.9 | 4.3 | 0.00 | 0.00 | 0.00 | 61 | 1010.1 |
| 20260506194535 | 81 | 324 | 0.0 | 4.3 | 0.00 | 0.00 | 0.00 | 64 | 1010.2 |
| 20260506194030 | 81 | 89 | 0.9 | 4.3 | 0.00 | 0.00 | 0.00 | 62 | 1010.3 |
| 20260506193529 | 81 | 75 | 0.0 | 5.2 | 0.00 | 0.00 | 0.00 | 61 | 1010.3 |
| 20260506193028 | 80 | 31 | 0.0 | 5.2 | 0.00 | 0.00 | 0.00 | 61 | 1010.3 |
| 20260506192527 | 80 | 36 | 0.0 | 3.5 | 0.00 | 0.00 | 0.00 | 61 | 1010.4 |
| 20260506192028 | 79 | 36 | 0.0 | 4.3 | 0.00 | 0.00 | 0.00 | 61 | 1010.5 |
| 20260506191527 | 79 | 65 | 0.9 | 5.2 | 0.00 | 0.00 | 0.00 | 62 | 1010.6 |
| 20260506191026 | 79 | 41 | 0.0 | 5.2 | 0.00 | 0.00 | 0.00 | 62 | 1010.7 |
| 20260506190526 | 79 | 41 | 0.9 | 3.5 | 0.00 | 0.00 | 0.00 | 62 | 1010.8 |
| 20260506190025 | 80 | 22 | 0.0 | 3.5 | 0.00 | 0.00 | 0.00 | 62 | 1010.7 |
| 20260506185525 | 80 | 53 | 0.0 | 3.5 | 0.00 | 0.00 | 0.00 | 61 | 1010.7 |
| 20260506185030 | 80 | 99 | 0.0 | 2.6 | 0.00 | 0.00 | 0.00 | 61 | 1010.8 |
| 20260506184528 | 80 | 51 | 0.0 | 5.2 | 0.00 | 0.00 | 0.00 | 62 | 1010.8 |
| 20260506184027 | 80 | 72 | 0.0 | 5.2 | 0.00 | 0.00 | 0.00 | 61 | 1010.8 |
| 20260506183527 | 80 | 79 | 0.0 | 4.3 | 0.00 | 0.00 | 0.00 | 61 | 1010.8 |
| 20260506183026 | 80 | 73 | 0.9 | 5.2 | 0.00 | 0.00 | 0.00 | 60 | 1010.7 |
| 20260506182522 | 80 | 93 | 1.7 | 5.2 | 0.00 | 0.00 | 0.00 | 60 | 1010.9 |
| 20260506182026 | 80 | 70 | 0.9 | 6.1 | 0.00 | 0.00 | 0.00 | 59 | 1010.9 |
| 20260506181522 | 79 | 68 | 0.9 | 6.1 | 0.00 | 0.00 | 0.00 | 60 | 1010.9 |
| 20260506181020 | 78 | 85 | 0.9 | 5.2 | 0.00 | 0.00 | 0.00 | 58 | 1010.9 |
| 20260506180519 | 77 | 82 | 0.0 | 3.5 | 0.00 | 0.00 | 0.00 | 59 | 1010.9 |
| 20260506180018 | 77 | 100 | 0.0 | 3.5 | 0.00 | 0.00 | 0.00 | 60 | 1011.0 |
| 20260506175521 | 77 | 77 | 0.9 | 3.5 | 0.00 | 0.00 | 0.00 | 61 | 1011.1 |
| 20260506175021 | 76 | 77 | 0.0 | 1.7 | 0.00 | 0.00 | 0.00 | 61 | 1011.3 |
| 20260506174518 | 76 | 72 | 0.0 | 1.7 | 0.00 | 0.00 | 0.00 | 60 | 1011.5 |
| 20260506174017 | 76 | 101 | 0.0 | 2.6 | 0.00 | 0.00 | 0.00 | 60 | 1011.5 |
| 20260506173519 | 77 | 119 | 0.0 | 3.5 | 0.00 | 0.00 | 0.00 | 60 | 1011.4 |
| 20260506173021 | 77 | 104 | 0.0 | 3.5 | 0.00 | 0.00 | 0.00 | 60 | 1011.4 |
| 20260506172515 | 77 | 60 | 0.0 | 2.6 | 0.00 | 0.00 | 0.00 | 60 | 1011.4 |
| 20260506172015 | 77 | 91 | 0.0 | 2.6 | 0.00 | 0.00 | 0.00 | 59 | 1011.3 |
| 20260506171515 | 77 | 79 | 0.0 | 3.5 | 0.00 | 0.00 | 0.00 | 59 | 1011.3 |
| 20260506171014 | 77 | 52 | 0.0 | 3.5 | 0.00 | 0.00 | 0.00 | 59 | 1011.2 |
| 20260506170514 | 77 | 68 | 0.0 | 2.6 | 0.00 | 0.00 | 0.00 | 59 | 1011.2 |
| 20260506170015 | 77 | 82 | 0.0 | 2.6 | 0.00 | 0.00 | 0.00 | 59 | 1011.2 |
| 20260506165512 | 77 | 75 | 0.0 | 2.6 | 0.00 | 0.00 | 0.00 | 59 | 1011.1 |
| 20260506165014 | 77 | 65 | 0.9 | 2.6 | 0.00 | 0.00 | 0.00 | 59 | 1011.1 |
| 20260506164515 | 77 | 84 | 0.0 | 2.6 | 0.00 | 0.00 | 0.00 | 60 | 1011.0 |
| 20260506164012 | 77 | 76 | 0.0 | 2.6 | 0.00 | 0.00 | 0.00 | 60 | 1010.9 |
| 20260506163511 | 77 | 47 | 0.0 | 2.6 | 0.00 | 0.00 | 0.00 | 61 | 1011.0 |
| 20260506163012 | 77 | 72 | 0.0 | 2.6 | 0.00 | 0.00 | 0.00 | 61 | 1011.0 |
| 20260506162508 | 77 | 79 | 0.0 | 2.6 | 0.00 | 0.00 | 0.00 | 61 | 1010.9 |
| 20260506162008 | 76 | 84 | 0.0 | 1.7 | 0.00 | 0.00 | 0.00 | 60 | 1010.8 |
| 20260506161508 | 77 | 91 | 0.0 | 0.9 | 0.00 | 0.00 | 0.00 | 61 | 1010.8 |
| 20260506161007 | 77 | 72 | 0.0 | 2.6 | 0.00 | 0.00 | 0.00 | 61 | 1010.7 |
| 20260506160509 | 77 | 68 | 0.0 | 2.6 | 0.00 | 0.00 | 0.00 | 60 | 1010.6 |
| 20260506160007 | 77 | 51 | 0.0 | 1.7 | 0.00 | 0.00 | 0.00 | 60 | 1010.4 |
| 20260506155504 | 77 | 94 | 0.0 | 0.0 | 0.00 | 0.00 | 0.00 | 60 | 1010.3 |
| 20260506155004 | 77 | 93 | 0.0 | 0.9 | 0.00 | 0.00 | 0.00 | 60 | 1010.2 |
| 20260506154514 | 77 | 51 | 0.0 | 1.7 | 0.00 | 0.00 | 0.00 | 60 | 1010.3 |
| 20260506154004 | 77 | 53 | 0.0 | 1.7 | 0.00 | 0.00 | 0.00 | 60 | 1010.3 |
| 20260506153504 | 77 | 69 | 0.0 | 0.9 | 0.00 | 0.00 | 0.00 | 60 | 1010.2 |
| 20260506153002 | 77 | 72 | 0.0 | 1.7 | 0.00 | 0.00 | 0.00 | 60 | 1010.2 |
| 20260506152501 | 77 | 46 | 0.0 | 1.7 | 0.00 | 0.00 | 0.00 | 60 | 1010.2 |
| 20260506152001 | 77 | 85 | 0.0 | 0.9 | 0.00 | 0.00 | 0.00 | 59 | 1010.2 |
| 20260506151502 | 77 | 86 | 0.0 | 0.9 | 0.00 | 0.00 | 0.00 | 59 | 1010.2 |
| 20260506151100 | 77 | 94 | 0.0 | 0.9 | 0.00 | 0.00 | 0.00 | 60 | 1010.2 |
| 20260506150559 | 77 | 117 | 0.0 | 0.0 | 0.00 | 0.00 | 0.00 | 59 | 1010.2 |
| 20260506150104 | 77 | 117 | 0.0 | 0.0 | 0.00 | 0.00 | 0.00 | 58 | 1010.1 |
| 20260506145558 | 77 | 117 | 0.0 | 0.0 | 0.00 | 0.00 | 0.00 | 58 | 1010.0 |
| 20260506145057 | 77 | 117 | 0.0 | 0.0 | 0.00 | 0.00 | 0.00 | 58 | 1010.0 |
| 20260506144557 | 77 | 117 | 0.0 | 0.9 | 0.00 | 0.00 | 0.00 | 58 | 1009.9 |
| 20260506144057 | 77 | 117 | 0.0 | 0.9 | 0.00 | 0.00 | 0.00 | 59 | 1009.9 |
| 20260506143555 | 76 | 117 | 0.0 | 0.9 | 0.00 | 0.00 | 0.00 | 59 | 1009.7 |
| 20260506143055 | 76 | 118 | 0.0 | 1.7 | 0.00 | 0.00 | 0.00 | 59 | 1009.7 |
| 20260506142553 | 76 | 144 | 0.0 | 1.7 | 0.00 | 0.00 | 0.00 | 59 | 1009.6 |
| 20260506142052 | 76 | 138 | 0.0 | 2.6 | 0.00 | 0.00 | 0.00 | 59 | 1009.6 |
| 20260506141552 | 76 | 167 | 0.9 | 2.6 | 0.00 | 0.00 | 0.00 | 59 | 1009.5 |
| 20260506141052 | 76 | 139 | 0.0 | 0.9 | 0.00 | 0.00 | 0.00 | 59 | 1009.4 |
| 20260506140554 | 76 | 148 | 0.0 | 2.6 | 0.00 | 0.00 | 0.00 | 59 | 1009.3 |
| 20260506140051 | 76 | 124 | 0.0 | 2.6 | 0.00 | 0.00 | 0.00 | 59 | 1009.2 |
| 20260506135550 | 76 | 147 | 0.0 | 2.6 | 0.00 | 0.00 | 0.00 | 60 | 1009.1 |
| 20260506135049 | 76 | 224 | 0.0 | 3.5 | 0.00 | 0.00 | 0.00 | 60 | 1009.0 |
| 20260506134549 | 75 | 140 | 0.9 | 3.5 | 0.00 | 0.00 | 0.00 | 60 | 1008.9 |
| 20260506134048 | 75 | 155 | 0.0 | 3.5 | 0.00 | 0.00 | 0.00 | 60 | 1008.9 |
| 20260506133548 | 75 | 163 | 0.0 | 3.5 | 0.00 | 0.00 | 0.00 | 60 | 1008.8 |
| 20260506133046 | 75 | 166 | 0.0 | 2.6 | 0.00 | 0.00 | 0.00 | 60 | 1008.7 |
| 20260506132544 | 75 | 124 | 0.0 | 3.5 | 0.00 | 0.00 | 0.00 | 61 | 1008.7 |
| 20260506132045 | 75 | 131 | 0.9 | 2.6 | 0.00 | 0.00 | 0.00 | 61 | 1008.6 |
| 20260506131557 | 75 | 113 | 0.0 | 2.6 | 0.00 | 0.00 | 0.00 | 61 | 1008.6 |
| 20260506131043 | 75 | 109 | 0.0 | 3.5 | 0.00 | 0.00 | 0.00 | 61 | 1008.6 |
| 20260506130544 | 75 | 129 | 0.0 | 1.7 | 0.00 | 0.00 | 0.00 | 61 | 1008.5 |
| 20260506130051 | 75 | 128 | 0.0 | 0.9 | 0.00 | 0.00 | 0.00 | 61 | 1008.5 |
| 20260506125542 | 75 | 136 | 0.0 | 0.9 | 0.00 | 0.00 | 0.00 | 61 | 1008.5 |
| 20260506125043 | 75 | 119 | 0.0 | 0.9 | 0.00 | 0.00 | 0.00 | 61 | 1008.5 |
| 20260506124542 | 75 | 145 | 0.0 | 0.9 | 0.00 | 0.00 | 0.00 | 61 | 1008.4 |
| 20260506124041 | 75 | 127 | 0.0 | 0.0 | 0.00 | 0.00 | 0.00 | 61 | 1008.3 |
| 20260506123541 | 75 | 124 | 0.0 | 0.0 | 0.00 | 0.00 | 0.00 | 62 | 1008.3 |
| 20260506123041 | 75 | 124 | 0.0 | 0.0 | 0.00 | 0.00 | 0.00 | 62 | 1008.3 |
| 20260506122540 | 75 | 124 | 0.0 | 0.0 | 0.00 | 0.00 | 0.00 | 62 | 1008.2 |
| 20260506122039 | 75 | 117 | 0.0 | 0.0 | 0.00 | 0.00 | 0.00 | 62 | 1008.2 |
| 20260506121539 | 75 | 121 | 0.0 | 0.0 | 0.00 | 0.00 | 0.00 | 62 | 1008.1 |
| 20260506121039 | 75 | 108 | 0.0 | 2.6 | 0.00 | 0.00 | 0.00 | 62 | 1008.1 |
| 20260506120543 | 75 | 116 | 0.0 | 2.6 | 0.00 | 0.00 | 0.00 | 62 | 1008.1 |
| 20260506120040 | 75 | 115 | 0.0 | 0.9 | 0.00 | 0.00 | 0.00 | 62 | 1008.1 |
| 20260506115539 | 75 | 111 | 0.0 | 1.7 | 0.00 | 0.00 | 0.00 | 63 | 1008.1 |
| 20260506115037 | 75 | 117 | 0.0 | 1.7 | 0.00 | 0.00 | 0.00 | 63 | 1008.1 |
| 20260506114538 | 75 | 118 | 0.0 | 0.9 | 0.00 | 0.00 | 0.00 | 63 | 1008.1 |
| 20260506114039 | 75 | 119 | 0.0 | 1.7 | 0.00 | 0.00 | 0.00 | 63 | 1008.2 |
| 20260506113538 | 75 | 118 | 0.0 | 1.7 | 0.00 | 0.00 | 0.00 | 63 | 1008.1 |
| 20260506113037 | 75 | 115 | 0.0 | 0.9 | 0.00 | 0.00 | 0.00 | 63 | 1008.1 |
| 20260506112538 | 75 | 115 | 0.0 | 2.6 | 0.00 | 0.00 | 0.00 | 63 | 1008.0 |
| 20260506112037 | 75 | 160 | 0.9 | 2.6 | 0.00 | 0.00 | 0.00 | 63 | 1008.0 |
| 20260506111536 | 75 | 151 | 0.0 | 3.5 | 0.00 | 0.00 | 0.00 | 63 | 1008.1 |
| 20260506111037 | 75 | 127 | 0.9 | 3.5 | 0.00 | 0.00 | 0.00 | 63 | 1008.1 |
| 20260506110538 | 75 | 105 | 0.9 | 4.3 | 0.00 | 0.00 | 0.00 | 63 | 1008.1 |
| 20260506110036 | 75 | 157 | 0.9 | 4.3 | 0.00 | 0.00 | 0.00 | 63 | 1008.1 |
| 20260506105535 | 75 | 120 | 0.0 | 5.2 | 0.00 | 0.00 | 0.00 | 63 | 1008.2 |
| 20260506105035 | 75 | 128 | 1.7 | 5.2 | 0.00 | 0.00 | 0.00 | 63 | 1008.2 |
| 20260506104535 | 75 | 113 | 0.0 | 5.2 | 0.00 | 0.00 | 0.00 | 63 | 1008.2 |
| 20260506104034 | 75 | 138 | 0.9 | 5.2 | 0.00 | 0.00 | 0.00 | 62 | 1008.1 |
| 20260506103534 | 75 | 146 | 0.9 | 4.3 | 0.00 | 0.00 | 0.00 | 62 | 1008.0 |
| 20260506103039 | 75 | 136 | 1.7 | 7.0 | 0.00 | 0.00 | 0.00 | 62 | 1008.0 |
| 20260506102533 | 75 | 119 | 2.6 | 7.0 | 0.00 | 0.00 | 0.00 | 62 | 1008.0 |
| 20260506102034 | 75 | 119 | 2.6 | 6.1 | 0.00 | 0.00 | 0.00 | 62 | 1008.1 |
| 20260506101533 | 75 | 150 | 2.6 | 8.7 | 0.00 | 0.00 | 0.00 | 62 | 1008.1 |
| 20260506101032 | 75 | 111 | 2.6 | 8.7 | 0.00 | 0.00 | 0.00 | 62 | 1008.0 |
| 20260506100534 | 75 | 125 | 2.6 | 6.1 | 0.00 | 0.00 | 0.00 | 63 | 1008.0 |
| 20260506100036 | 75 | 109 | 0.9 | 6.1 | 0.00 | 0.00 | 0.00 | 62 | 1008.0 |
| 20260506095531 | 75 | 160 | 2.6 | 6.1 | 0.00 | 0.00 | 0.00 | 62 | 1008.1 |
| 20260506095031 | 75 | 106 | 0.0 | 6.1 | 0.00 | 0.00 | 0.00 | 63 | 1008.0 |
| 20260506094540 | 75 | 100 | 2.6 | 6.1 | 0.00 | 0.00 | 0.00 | 63 | 1008.1 |
| 20260506094033 | 75 | 127 | 3.5 | 6.1 | 0.00 | 0.00 | 0.00 | 63 | 1008.0 |
| 20260506093530 | 75 | 128 | 1.7 | 5.2 | 0.00 | 0.00 | 0.00 | 63 | 1008.0 |
| 20260506093035 | 75 | 122 | 0.9 | 6.1 | 0.00 | 0.00 | 0.00 | 63 | 1007.9 |
| 20260506092529 | 75 | 142 | 1.7 | 6.1 | 0.00 | 0.00 | 0.00 | 63 | 1007.9 |
| 20260506092029 | 75 | 149 | 2.6 | 6.1 | 0.00 | 0.00 | 0.00 | 63 | 1007.8 |
| 20260506091531 | 75 | 98 | 0.9 | 7.8 | 0.00 | 0.00 | 0.00 | 63 | 1007.9 |
| 20260506091032 | 76 | 143 | 2.6 | 7.8 | 0.00 | 0.00 | 0.00 | 63 | 1007.9 |
| 20260506090528 | 76 | 133 | 1.7 | 5.2 | 0.00 | 0.00 | 0.00 | 63 | 1007.9 |
| 20260506090028 | 76 | 148 | 1.7 | 7.0 | 0.00 | 0.00 | 0.00 | 62 | 1007.9 |
| 20260506085528 | 76 | 147 | 2.6 | 7.0 | 0.00 | 0.00 | 0.00 | 62 | 1007.9 |
| 20260506085027 | 76 | 145 | 1.7 | 6.1 | 0.00 | 0.00 | 0.00 | 62 | 1007.9 |
| 20260506084526 | 76 | 102 | 1.7 | 8.7 | 0.00 | 0.00 | 0.00 | 62 | 1007.8 |
| 20260506084028 | 76 | 115 | 3.5 | 8.7 | 0.00 | 0.00 | 0.00 | 62 | 1007.8 |
| 20260506083527 | 76 | 108 | 2.6 | 8.7 | 0.00 | 0.00 | 0.00 | 62 | 1007.8 |
| 20260506083027 | 76 | 193 | 0.9 | 8.7 | 0.00 | 0.00 | 0.00 | 62 | 1007.8 |
| 20260506082530 | 76 | 120 | 1.7 | 7.8 | 0.00 | 0.00 | 0.00 | 62 | 1007.8 |
| 20260506082027 | 76 | 101 | 2.6 | 7.0 | 0.00 | 0.00 | 0.00 | 62 | 1007.9 |
| 20260506081530 | 76 | 126 | 2.6 | 7.0 | 0.00 | 0.00 | 0.00 | 62 | 1007.9 |
| 20260506081025 | 76 | 141 | 0.9 | 6.1 | 0.00 | 0.00 | 0.00 | 63 | 1008.0 |
| 20260506080525 | 76 | 134 | 0.9 | 6.1 | 0.00 | 0.00 | 0.00 | 62 | 1008.0 |
| 20260506073522 | 76 | 106 | 0.0 | 3.5 | 0.00 | 0.00 | 0.00 | 63 | 1008.1 |
| 20260506073022 | 76 | 136 | 0.9 | 4.3 | 0.00 | 0.00 | 0.00 | 63 | 1008.1 |
| 20260506072522 | 76 | 129 | 0.0 | 6.1 | 0.00 | 0.00 | 0.00 | 63 | 1008.1 |
| 20260506072021 | 76 | 115 | 1.7 | 7.0 | 0.00 | 0.00 | 0.00 | 63 | 1008.0 |
| 20260506071524 | 76 | 112 | 2.6 | 7.0 | 0.00 | 0.00 | 0.00 | 63 | 1008.1 |
| 20260506071021 | 76 | 118 | 0.9 | 7.0 | 0.00 | 0.00 | 0.00 | 63 | 1008.1 |
| 20260506070521 | 76 | 118 | 3.5 | 7.0 | 0.00 | 0.00 | 0.00 | 63 | 1008.1 |
| 20260506062019 | 76 | 126 | 0.0 | 5.2 | 0.00 | 0.00 | 0.00 | 63 | 1008.1 |
| 20260506061519 | 76 | 130 | 0.9 | 4.3 | 0.00 | 0.00 | 0.00 | 63 | 1008.1 |
| 20260506061018 | 76 | 92 | 0.0 | 5.2 | 0.00 | 0.00 | 0.00 | 64 | 1008.1 |
| 20260506060522 | 76 | 123 | 0.9 | 5.2 | 0.00 | 0.00 | 0.00 | 64 | 1008.2 |
| 20260506051015 | 77 | 136 | 2.6 | 7.0 | 0.00 | 0.00 | 0.00 | 67 | 1008.0 |
| 20260506050510 | 77 | 88 | 0.9 | 5.2 | 0.00 | 0.00 | 0.00 | 68 | 1007.9 |
| 20260506045012 | 78 | 100 | 1.7 | 7.0 | 0.00 | 0.00 | 0.00 | 68 | 1007.9 |
| 20260506044508 | 78 | 111 | 2.6 | 6.1 | 0.00 | 0.00 | 0.00 | 69 | 1007.9 |
| 20260506044010 | 78 | 177 | 1.7 | 5.2 | 0.00 | 0.00 | 0.00 | 69 | 1008.0 |
| 20260506043508 | 78 | 103 | 0.9 | 5.2 | 0.00 | 0.00 | 0.00 | 69 | 1008.0 |
| 20260506043008 | 78 | 159 | 1.7 | 5.2 | 0.00 | 0.00 | 0.00 | 69 | 1008.0 |
| 20260506042508 | 78 | 139 | 0.9 | 6.1 | 0.00 | 0.00 | 0.00 | 70 | 1007.9 |
| 20260506042009 | 78 | 129 | 1.7 | 7.0 | 0.00 | 0.00 | 0.00 | 70 | 1007.8 |
| 20260506041513 | 79 | 124 | 1.7 | 6.1 | 0.00 | 0.00 | 0.00 | 70 | 1007.7 |
| 20260506041006 | 79 | 131 | 0.9 | 4.3 | 0.00 | 0.00 | 0.00 | 70 | 1007.6 |
| 20260506040507 | 79 | 168 | 0.9 | 3.5 | 0.00 | 0.00 | 0.00 | 70 | 1007.6 |
| 20260506040009 | 79 | 150 | 0.9 | 7.8 | 0.00 | 0.00 | 0.00 | 69 | 1007.6 |
| 20260506035511 | 79 | 72 | 1.7 | 7.8 | 0.00 | 0.00 | 0.00 | 69 | 1007.6 |
| 20260506035007 | 79 | 104 | 0.9 | 4.3 | 0.00 | 0.00 | 0.00 | 69 | 1007.5 |
| 20260506034510 | 79 | 100 | 0.9 | 5.2 | 0.00 | 0.00 | 0.00 | 69 | 1007.3 |
| 20260506034006 | 80 | 101 | 0.9 | 5.2 | 0.00 | 0.00 | 0.00 | 68 | 1007.2 |
| 20260506033505 | 80 | 112 | 0.0 | 3.5 | 0.00 | 0.00 | 0.00 | 68 | 1007.2 |
| 20260506033005 | 80 | 123 | 0.0 | 4.3 | 0.00 | 0.00 | 0.00 | 68 | 1007.1 |